• In Hungary
  • List of Countries
  • For 7 days
  • Water Temperature
  • Satellite Maps
  • Weather Map
  • News
  • Weather Widgets
  • user-avatar
    Login

    Hourly Weather Dziadowizna

    Today, 16 July, Monday

    Time Temperature Precipitation Wind Pressure Humidity
    00:00 +18°C° 0.1 mm 1 mps 739 mmHg 85%
    01:00 +18°C° 0 mm 1 mps 738 mmHg 86%
    02:00 +16°C° 0.1 mm 1 mps 738 mmHg 87%
    03:00 +16°C° 0.1 mm 1 mps 738 mmHg 88%
    04:00 +16°C° 0.1 mm 1 mps 738 mmHg 89%
    05:00 +17°C° 0 mm 2 mps 738 mmHg 84%
    06:00 +19°C° 0 mm 2 mps 738 mmHg 80%
    07:00 +20°C° 0 mm 2 mps 738 mmHg 76%
    08:00 +21°C° 0.2 mm 3 mps 738 mmHg 71%
    09:00 +24°C° 0.2 mm 3 mps 738 mmHg 67%
    10:00 +25°C° 0.2 mm 4 mps 737 mmHg 63%
    11:00 +26°C° 0.4 mm 4 mps 737 mmHg 62%
    12:00 +26°C° 0.4 mm 4 mps 737 mmHg 60%
    13:00 +27°C° 0.4 mm 4 mps 737 mmHg 59%
    14:00 +26°C° 0.8 mm 4 mps 736 mmHg 63%
    15:00 +26°C° 0.8 mm 4 mps 736 mmHg 66%
    16:00 +25°C° 0.8 mm 3 mps 736 mmHg 70%
    17:00 +24°C° 0.3 mm 3 mps 736 mmHg 74%
    18:00 +23°C° 0.3 mm 2 mps 735 mmHg 77%
    19:00 +21°C° 0.3 mm 2 mps 735 mmHg 81%
    20:00 +20°C° 0.5 mm 2 mps 735 mmHg 83%
    21:00 +19°C° 0.5 mm 2 mps 735 mmHg 86%
    22:00 +18°C° 0.5 mm 2 mps 735 mmHg 88%
    23:00 +18°C° 0 mm 2 mps 735 mmHg 89%

    Tomorrow, 17 July, Tuesday

    Time Temperature Precipitation Wind Pressure Humidity
    00:00 +17°C° 0 mm 2 mps 735 mmHg 91%
    01:00 +17°C° 0 mm 2 mps 735 mmHg 92%
    02:00 +17°C° 0 mm 2 mps 734 mmHg 92%
    03:00 +17°C° 0 mm 2 mps 734 mmHg 93%
    04:00 +16°C° 0 mm 2 mps 734 mmHg 93%
    05:00 +17°C° 0 mm 3 mps 734 mmHg 90%
    06:00 +19°C° 0 mm 3 mps 734 mmHg 87%
    07:00 +20°C° 0 mm 3 mps 734 mmHg 85%
    08:00 +20°C° 0.3 mm 4 mps 734 mmHg 83%
    09:00 +21°C° 0.3 mm 4 mps 734 mmHg 81%
    10:00 +21°C° 0.3 mm 5 mps 734 mmHg 79%
    11:00 +22°C° 0.5 mm 5 mps 734 mmHg 79%
    12:00 +22°C° 0.5 mm 5 mps 734 mmHg 79%
    13:00 +22°C° 0.5 mm 5 mps 734 mmHg 79%
    14:00 +22°C° 0.3 mm 5 mps 734 mmHg 80%
    15:00 +21°C° 0.3 mm 5 mps 734 mmHg 81%
    16:00 +21°C° 0.3 mm 5 mps 734 mmHg 82%
    17:00 +20°C° 0.2 mm 5 mps 734 mmHg 85%
    18:00 +19°C° 0.2 mm 4 mps 734 mmHg 87%
    19:00 +18°C° 0.2 mm 4 mps 734 mmHg 90%
    20:00 +18°C° 0.4 mm 4 mps 734 mmHg 91%
    21:00 +18°C° 0.4 mm 4 mps 734 mmHg 92%
    22:00 +18°C° 0.4 mm 4 mps 734 mmHg 94%
    23:00 +17°C° 0.4 mm 4 mps 734 mmHg 94%

    Day after tomorrow, 18 July, Wednesday

    Time Temperature Precipitation Wind Pressure Humidity
    00:00 +17°C° 0.4 mm 4 mps 734 mmHg 94%
    01:00 +17°C° 0.4 mm 4 mps 734 mmHg 94%
    02:00 +17°C° 0.8 mm 4 mps 734 mmHg 94%
    03:00 +17°C° 0.8 mm 4 mps 734 mmHg 95%
    04:00 +17°C° 0.8 mm 4 mps 734 mmHg 95%
    05:00 +17°C° 1.2 mm 4 mps 734 mmHg 95%
    06:00 +17°C° 1.2 mm 4 mps 734 mmHg 95%
    07:00 +17°C° 1.2 mm 4 mps 734 mmHg 95%
    08:00 +18°C° 1.4 mm 4 mps 734 mmHg 94%
    09:00 +18°C° 1.4 mm 4 mps 734 mmHg 94%
    10:00 +17°C° 1.4 mm 5 mps 734 mmHg 94%
    11:00 +17°C° 1.2 mm 5 mps 734 mmHg 94%
    12:00 +17°C° 1.2 mm 5 mps 735 mmHg 94%
    13:00 +17°C° 1.2 mm 5 mps 735 mmHg 93%
    14:00 +17°C° 0.8 mm 5 mps 735 mmHg 94%
    15:00 +17°C° 0.8 mm 5 mps 735 mmHg 94%
    16:00 +17°C° 0.8 mm 5 mps 735 mmHg 94%
    17:00 +18°C° 0.7 mm 4 mps 735 mmHg 94%
    18:00 +19°C° 0.7 mm 4 mps 735 mmHg 95%
    19:00 +19°C° 0.7 mm 4 mps 735 mmHg 95%
    20:00 +19°C° 0.5 mm 4 mps 735 mmHg 95%
    21:00 +19°C° 0.5 mm 4 mps 735 mmHg 95%
    22:00 +19°C° 0.5 mm 4 mps 735 mmHg 96%
    23:00 +18°C° 0.5 mm 4 mps 735 mmHg 96%

    19 July, Thursday

    Time Temperature Precipitation Wind Pressure Humidity
    00:00 +18°C° 0.5 mm 4 mps 735 mmHg 96%
    01:00 +18°C° 0.5 mm 4 mps 735 mmHg 96%
    02:00 +18°C° 0.7 mm 4 mps 735 mmHg 96%
    03:00 +18°C° 0.7 mm 4 mps 735 mmHg 96%
    04:00 +18°C° 0.7 mm 4 mps 735 mmHg 96%
    05:00 +18°C° 1.5 mm 4 mps 735 mmHg 96%
    06:00 +18°C° 1.5 mm 4 mps 735 mmHg 96%
    07:00 +18°C° 1.5 mm 4 mps 736 mmHg 96%
    08:00 +18°C° 1.4 mm 4 mps 736 mmHg 95%
    09:00 +18°C° 1.4 mm 4 mps 736 mmHg 95%
    10:00 +18°C° 1.4 mm 4 mps 736 mmHg 95%
    11:00 +18°C° 0.6 mm 4 mps 737 mmHg 95%
    12:00 +18°C° 0.6 mm 4 mps 737 mmHg 94%
    13:00 +18°C° 0.6 mm 4 mps 737 mmHg 94%
    14:00 +18°C° 0.2 mm 4 mps 737 mmHg 94%
    15:00 +18°C° 0.2 mm 3 mps 737 mmHg 93%
    16:00 +18°C° 0.2 mm 3 mps 737 mmHg 93%
    17:00 +18°C° 0.2 mm 3 mps 737 mmHg 94%
    18:00 +18°C° 0.2 mm 3 mps 737 mmHg 94%
    19:00 +18°C° 0.2 mm 2 mps 737 mmHg 95%
    20:00 +18°C° 0.1 mm 2 mps 737 mmHg 95%
    21:00 +18°C° 0.1 mm 2 mps 738 mmHg 96%
    22:00 +18°C° 0.1 mm 2 mps 738 mmHg 96%
    23:00 +18°C° 0.2 mm 2 mps 738 mmHg 96%

    20 July, Friday

    Time Temperature Precipitation Wind Pressure Humidity
    00:00 +18°C° 0.2 mm 2 mps 738 mmHg 96%
    01:00 +18°C° 0.2 mm 2 mps 738 mmHg 97%
    02:00 +18°C° 0.1 mm 2 mps 738 mmHg 96%
    03:00 +17°C° 0.1 mm 2 mps 738 mmHg 96%
    04:00 +17°C° 0.1 mm 2 mps 738 mmHg 96%
    05:00 +17°C° 0.1 mm 2 mps 738 mmHg 94%
    06:00 +17°C° 0.1 mm 2 mps 738 mmHg 93%
    07:00 +17°C° 0.1 mm 3 mps 738 mmHg 91%
    08:00 +18°C° 0.1 mm 2 mps 738 mmHg 87%
    09:00 +19°C° 0.1 mm 2 mps 738 mmHg 84%
    10:00 +19°C° 0.1 mm 2 mps 738 mmHg 80%
    11:00 +21°C° 0 mm 2 mps 738 mmHg 74%
    12:00 +23°C° 0 mm 2 mps 738 mmHg 69%
    13:00 +25°C° 0 mm 2 mps 738 mmHg 63%
    14:00 +25°C° 0 mm 2 mps 738 mmHg 61%
    15:00 +25°C° 0 mm 3 mps 737 mmHg 59%
    16:00 +26°C° 0 mm 3 mps 737 mmHg 57%
    17:00 +24°C° 0 mm 2 mps 737 mmHg 62%
    18:00 +23°C° 0 mm 2 mps 737 mmHg 67%
    19:00 +22°C° 0 mm 1 mps 737 mmHg 73%
    20:00 +20°C° 0 mm 1 mps 737 mmHg 77%
    21:00 +19°C° 0 mm 1 mps 737 mmHg 80%
    22:00 +16°C° 0 mm 0 mps 737 mmHg 84%
    23:00 +16°C° 0 mm 1 mps 737 mmHg 85%

    21 July, Saturday

    Time Temperature Precipitation Wind Pressure Humidity
    00:00 +16°C° 0 mm 1 mps 737 mmHg 86%
    01:00 +16°C° 0 mm 1 mps 737 mmHg 87%
    02:00 +15°C° 0 mm 1 mps 737 mmHg 88%
    03:00 +15°C° 0 mm 1 mps 737 mmHg 88%
    04:00 +15°C° 0 mm 1 mps 736 mmHg 89%
    05:00 +18°C° 0 mm 1 mps 736 mmHg 84%
    06:00 +19°C° 0 mm 1 mps 737 mmHg 79%
    07:00 +21°C° 0 mm 1 mps 737 mmHg 74%
    08:00 +23°C° 0 mm 1 mps 737 mmHg 69%
    09:00 +24°C° 0 mm 1 mps 737 mmHg 63%
    10:00 +26°C° 0 mm 1 mps 737 mmHg 58%
    11:00 +26°C° 0 mm 1 mps 737 mmHg 55%
    12:00 +27°C° 0 mm 1 mps 736 mmHg 52%
    13:00 +28°C° 0 mm 1 mps 736 mmHg 48%
    14:00 +28°C° 0 mm 2 mps 736 mmHg 50%
    15:00 +27°C° 0 mm 2 mps 736 mmHg 51%
    16:00 +27°C° 0 mm 2 mps 736 mmHg 53%
    17:00 +26°C° 0.1 mm 2 mps 735 mmHg 59%
    18:00 +24°C° 0.1 mm 2 mps 735 mmHg 64%
    19:00 +23°C° 0.1 mm 2 mps 735 mmHg 70%
    20:00 +21°C° 0 mm 2 mps 735 mmHg 73%
    21:00 +20°C° 0 mm 2 mps 735 mmHg 76%
    22:00 +18°C° 0 mm 2 mps 735 mmHg 79%
    23:00 +19°C° 0 mm 1 mps 736 mmHg 80%
    Show more